TimeADT,TemperatureF,Dew PointF,Humidity,Sea Level PressureIn,VisibilityMPH,Wind Direction,Wind SpeedMPH,Gust SpeedMPH,PrecipitationIn,Events,Conditions,WindDirDegrees,DateUTC
12:00 AM,36.3,31.6,83,30.09,-9999.0,SSE,4.6,-,N/A,,Unknown,150,2012-10-10 03:00:00
1:00 AM,36.1,30.9,81,30.07,-9999.0,SSE,3.5,-,N/A,,Unknown,150,2012-10-10 04:00:00
2:00 AM,31.6,30.2,94,30.07,-9999.0,SSE,2.3,-,N/A,,Unknown,150,2012-10-10 05:00:00
3:00 AM,30,29,95,30.06,,ESE,1.2,,,,,120,2012-10-10 06:00:00
3:00 AM,30.4,29.1,95,30.06,-9999.0,ESE,1.2,-,N/A,,Unknown,120,2012-10-10 06:00:00
4:00 AM,36.5,32.0,84,30.04,-9999.0,SE,5.8,-,N/A,,Unknown,130,2012-10-10 07:00:00
5:00 AM,36.5,31.5,82,30.03,-9999.0,SE,4.6,-,N/A,,Unknown,140,2012-10-10 08:00:00
6:00 AM,38.1,33.4,83,30.01,-9999.0,East,3.5,-,N/A,,Unknown,100,2012-10-10 09:00:00
7:00 AM,36.7,33.6,89,30.00,-9999.0,ESE,4.6,-,N/A,,Unknown,110,2012-10-10 10:00:00
8:00 AM,38.3,35.1,88,29.99,-9999.0,East,5.8,-,N/A,,Unknown,90,2012-10-10 11:00:00
9:00 AM,42,37,78,29.97,,East,4.6,,,,,100,2012-10-10 12:00:00
9:00 AM,41.9,37.4,84,29.97,-9999.0,East,4.6,-,N/A,,Unknown,100,2012-10-10 12:00:00
10:00 AM,44.8,38.5,79,29.94,-9999.0,ENE,6.9,-,N/A,,Unknown,70,2012-10-10 13:00:00
11:00 AM,48.2,40.3,74,29.91,-9999.0,NE,4.6,-,N/A,,Unknown,50,2012-10-10 14:00:00
12:00 PM,54.7,40.3,58,29.88,-9999.0,SE,13.8,19.6,N/A,,Unknown,140,2012-10-10 15:00:00
1:00 PM,54.5,40.5,59,29.85,-9999.0,SE,15.0,21.9,N/A,,Unknown,130,2012-10-10 16:00:00
2:00 PM,53.2,39.7,60,29.81,-9999.0,SE,15.0,25.3,N/A,,Unknown,130,2012-10-10 17:00:00
3:00 PM,54,40,48,29.78,,ESE,16.1,,,,,120,2012-10-10 18:00:00
3:00 PM,54.0,39.9,59,29.78,-9999.0,ESE,16.1,24.2,N/A,,Unknown,120,2012-10-10 18:00:00
4:00 PM,53.6,40.3,61,29.74,-9999.0,SE,13.8,19.6,N/A,,Unknown,130,2012-10-10 19:00:00
5:00 PM,54.7,40.8,60,29.69,-9999.0,ESE,11.5,17.3,N/A,,Unknown,110,2012-10-10 20:00:00
6:00 PM,53.6,40.6,62,29.67,-9999.0,East,8.1,-,N/A,,Unknown,100,2012-10-10 21:00:00
7:00 PM,48.2,44.4,87,29.65,-9999.0,East,5.8,-,N/A,,Unknown,80,2012-10-10 22:00:00
8:00 PM,46.8,45.0,93,29.63,-9999.0,East,4.6,-,N/A,,Unknown,80,2012-10-10 23:00:00
9:00 PM,47,46,92,29.58,,ENE,4.6,,,,,70,2012-10-11 00:00:00
9:00 PM,47.3,45.5,93,29.58,-9999.0,ENE,4.6,-,N/A,,Unknown,70,2012-10-11 00:00:00
10:00 PM,47.7,45.5,92,29.57,-9999.0,SE,3.5,-,N/A,,Unknown,130,2012-10-11 01:00:00
11:00 PM,49.8,45.9,86,29.59,-9999.0,SW,11.5,18.4,N/A,,Unknown,230,2012-10-11 02:00:00